This is the latest recevied weather packets stored in our database for station/object F4NFR-13. If no packets are shown the sender has not sent any weather packets the latest 10 day(s).
| Time | Temp. | Humidity | Pressure | Rain* | Wind** | Luminosity | Snow |
|---|---|---|---|---|---|---|---|
| 1778173770 | 12.78° C | 69% | 1017.8 hPa | 0 mm | - | 86 W/m² | - |
| 1778173468 | 13.89° C | 68% | 1017.8 hPa | 0 mm | - | 102 W/m² | - |
| 1778173165 | 13.89° C | 67% | 1017.8 hPa | 0 mm | - | 105 W/m² | - |
| 1778172863 | 13.89° C | 65% | 1017.8 hPa | 0 mm | - | 86 W/m² | - |
| 1778172560 | 13.89° C | 64% | 1017.8 hPa | 0 mm | - | 87 W/m² | - |
| 1778172258 | 13.89° C | 65% | 1017.8 hPa | 0 mm | - | 93 W/m² | - |
| 1778171955 | 13.89° C | 67% | 1017.8 hPa | 0 mm | - | 118 W/m² | - |
| 1778171653 | 13.89° C | 67% | 1017.8 hPa | 0 mm | - | 113 W/m² | - |
| 1778171351 | 13.89° C | 67% | 1017.8 hPa | 0 mm | - | 100 W/m² | - |
| 1778171048 | 13.89° C | 65% | 1017.8 hPa | 0 mm | - | 117 W/m² | - |
| 1778170746 | 15° C | 63% | 1017.8 hPa | 0 mm | - | 141 W/m² | - |
| 1778170444 | 16.11° C | 63% | 1017.8 hPa | 0 mm | - | 0 W/m² | - |
| 1778170141 | 15° C | 62% | 1017.8 hPa | 0 mm | - | 0 W/m² | - |
| 1778169839 | 15° C | 62% | 1017.8 hPa | 0 mm | - | 0 W/m² | - |
| 1778169234 | 13.89° C | 66% | 1017.8 hPa | 0 mm | - | 261 W/m² | - |
| 1778168932 | 13.89° C | 65% | 1017.8 hPa | 0 mm | - | 0 W/m² | - |
| 1778168630 | 15° C | 65% | 1017.8 hPa | 0 mm | - | 204 W/m² | - |
| 1778168327 | 15° C | 64% | 1017.8 hPa | 0 mm | - | 232 W/m² | - |
| 1778168156 | 15° C | 64% | 1017.8 hPa | 0 mm | - | 281 W/m² | - |
| 1778168025 | 15° C | 64% | 1017.8 hPa | 0 mm | - | 281 W/m² | - |
| 1778167907 | 15° C | 65% | 1017.8 hPa | 0 mm | - | 0 W/m² | - |
| 1778167722 | 15° C | 65% | 1017.8 hPa | 0 mm | - | 0 W/m² | - |
| 1778167420 | 15° C | 64% | 1017.8 hPa | 0 mm | - | 322 W/m² | - |
| 1778167117 | 15° C | 61% | 1017.8 hPa | 0 mm | - | 0 W/m² | - |
| 1778166814 | 15° C | 63% | 1017.8 hPa | 0 mm | - | 0 W/m² | - |
* Rain latest hour (hover to see other rain measurements)
** Current wind speed in m/s (hover to see current wind gust speed)